Other Public Products
Issued by NWS Charleston, SC

Current Version | Previous Version | Graphics & Text | Print | Product List | Glossary On
Versions: 1 2 3 4 5 6 7 8 9 10 11 12 13 14 15 16 17 18 19 20 21 22 23 24 25 26 27 28 29 30 31 32 33 34 35 36 37 38 39 40 41 42 43 44 45 46 47 48 49 50
914
FPUS82 KCHS 270612
OPUCHS

TEST...KCHS/KSAV Gateway Observations...TEST
National Weather Service Charleston SC
200 AM EDT SAT MAY 27 2017

NOTE: "fair" indicates few or no clouds below 12,000 feet with no
significant weather and/or obstructions to visibility.

SCZ050-WAZ558-NCZ071-TXZ119-213-PAZ071-DCZ001-FLZ074-172-MI076-
NYZ176-178-MAZ016-IL014-TNZ027-NJZ106-GAZ044-MD014-270700-

...Gateway Observations for Charleston International...

CITY           SKY/WX    TMP DP  RH WIND       PRES   REMARKS
Chas Airport   CLEAR     68  59  73 SW6       30.01S
6HR MIN TEMP:  66; 6HR MAX TEMP:  77;

Seattle        PTCLDY    69  43  38 N10       30.01R
6HR MIN TEMP:  66; 6HR MAX TEMP:  81;

Charlotte      PTCLDY    67  57  70 S5        29.99F
6HR MIN TEMP:  63; 6HR MAX TEMP:  76;

Dallas DFW     MOCLDY    81  74  79 S13       29.80S
6HR MIN TEMP:  81; 6HR MAX TEMP:  87;

Dallas Love    MOCLDY    81  73  76 S14       29.82R
6HR MIN TEMP:  81; 6HR MAX TEMP:  87;

Philladelphia  PTCLDY    64  54  69 W6        29.87S
6HR MIN TEMP:  62; 6HR MAX TEMP:  72;

Wash National  MOCLDY    64  57  78 N3        29.92R
6HR MIN TEMP:  63; 6HR MAX TEMP:  73;

Baltimore      MOCLDY    55  55 100 W3        29.91R
6HR MIN TEMP:  55; 6HR MAX TEMP:  69;

Miami          PTCLDY    82  77  84 E8        30.05F HX  90
6HR MIN TEMP:  82; 6HR MAX TEMP:  84;

Detroit        LGT RAIN  61  56  83 CALM      29.89S
6HR MIN TEMP:  60; 6HR MAX TEMP:  68; 6HR PCP: TRACE;

Newark         CLEAR     63  53  70 SW7       29.82S
6HR MIN TEMP:  63; 6HR MAX TEMP:  71;

Laguardia      CLEAR     63  53  70 NW10      29.81S
6HR MIN TEMP:  63; 6HR MAX TEMP:  72;

J F K          PTCLDY    65  53  65 NW14      29.82S
6HR MIN TEMP:  65; 6HR MAX TEMP:  73;

Boston Logan   CLOUDY    54  51  90 NW7       29.76R
6HR MIN TEMP:  53; 6HR MAX TEMP:  55; 6HR PCP:  0.03;

Ft. Lauderdale PTCLDY    81  77  88 SE7       30.04F
6HR MIN TEMP:  81; 6HR MAX TEMP:  82;

Chicago O`Hare CLOUDY    57  53  86 NE8       29.86R
6HR MIN TEMP:  55; 6HR MAX TEMP:  57; 6HR PCP:  0.08;

Chicago Midway MOCLDY    57  55  93 NE6       29.85S
6HR MIN TEMP:  57; 6HR MAX TEMP:  59; 6HR PCP: TRACE;

Houston Bush   CLOUDY    81  74  79 S8        29.90F
6HR MIN TEMP:  81; 6HR MAX TEMP:  85;

Houston Hobby  CLOUDY    80  76  87 S10       29.91F
6HR MIN TEMP:  79; 6HR MAX TEMP:  82;

Nashville      CLOUDY    75  62  64 S9        29.93S
6HR MIN TEMP:  73; 6HR MAX TEMP:  84;

Atlanta        MOCLDY    70  62  76 W3        30.03S
6HR MIN TEMP:  70; 6HR MAX TEMP:  80;


$$

GAZ044-118-TXZ119-213-NCZ071-DCZ001-MDZ014-506-PAZ021-071-NJZ106-
NYZ176-178-MAZ106-OHZ011-021-055-MIZ076-KYZ091-ILZ014-INZ047-
MNZ060-ONZ431-270700-

...Gateway Observations for Savannah International...

CITY           SKY/WX    TMP DP  RH WIND       PRES   REMARKS
Savannah Arpt  CLEAR     68  57  68 CALM      30.02F
6HR MIN TEMP:  67; 6HR MAX TEMP:  80;

Atlanta        MOCLDY    70  62  76 W3        30.03S
6HR MIN TEMP:  70; 6HR MAX TEMP:  80;

Charlotte      PTCLDY    67  57  70 S5        29.99F
6HR MIN TEMP:  63; 6HR MAX TEMP:  76;

Dallas DFW     MOCLDY    81  74  79 S13       29.80S
6HR MIN TEMP:  81; 6HR MAX TEMP:  87;

Houston Bush   CLOUDY    81  74  79 S8        29.90F
6HR MIN TEMP:  81; 6HR MAX TEMP:  85;

Wash National  MOCLDY    64  57  78 N3        29.92R
6HR MIN TEMP:  63; 6HR MAX TEMP:  73;

Wash Dulles    PTCLDY    56  54  93 E5        29.91F
6HR MIN TEMP:  56; 6HR MAX TEMP:  71;

Baltimore      MOCLDY    55  55 100 W3        29.91R
6HR MIN TEMP:  55; 6HR MAX TEMP:  69;

Philadelphia   PTCLDY    64  54  69 W6        29.87S
6HR MIN TEMP:  62; 6HR MAX TEMP:  72;

Newark         CLEAR     63  53  70 SW7       29.82S
6HR MIN TEMP:  63; 6HR MAX TEMP:  71;

Laguardia      CLEAR     63  53  70 NW10      29.81S
6HR MIN TEMP:  63; 6HR MAX TEMP:  72;

J F K          PTCLDY    65  53  65 NW14      29.82S
6HR MIN TEMP:  65; 6HR MAX TEMP:  73;

Boston         CLOUDY    54  51  90 NW7       29.76R
6HR MIN TEMP:  53; 6HR MAX TEMP:  55; 6HR PCP:  0.03;

Pittsburg      CLOUDY    56  54  93 CALM      29.92S
6HR MIN TEMP:  55; 6HR MAX TEMP:  65;

Akron          CLOUDY    59  52  77 SE6       29.91S
6HR MIN TEMP:  58; 6HR MAX TEMP:  63;

Cleveland      MOCLDY    61  53  75 E5        29.91F
6HR MIN TEMP:  58; 6HR MAX TEMP:  66;

Cincinnati     MOCLDY    70  63  78 S6        29.83R
6HR MIN TEMP:  68; 6HR MAX TEMP:  74;

Columbus       CLOUDY    61  62 100 SE5       29.86F
Detroit        LGT RAIN  61  56  83 CALM      29.89S
6HR MIN TEMP:  60; 6HR MAX TEMP:  68; 6HR PCP: TRACE;

Chicago O`Hare CLOUDY    57  53  86 NE8       29.86R
6HR MIN TEMP:  55; 6HR MAX TEMP:  57; 6HR PCP:  0.08;

Minneapolis    CLEAR     62  46  55 NW5       29.85R
6HR MIN TEMP:  61; 6HR MAX TEMP:  78;

Indianapolis   PTCLDY    67  63  87 W6        29.82R
6HR MIN TEMP:  66; 6HR MAX TEMP:  75; 6HR PCP:  0.62;

Toronto Canada CLOUDY    57  55  94 CALM      29.87R

$$




USA.gov is the U.S. government's official web portal to all federal, state and local government web resources and services.